2023/09/30 00:00:00, 1.0,17.2
2023/09/30 00:10:00, 1.0,16.9
2023/09/30 00:20:00, 0.9,16.9
2023/09/30 00:30:00, 1.0,16.9
2023/09/30 00:40:00, 1.1,16.8
2023/09/30 00:50:00, 1.2,16.8
2023/09/30 01:00:00, 1.2,16.9
2023/09/30 01:10:00, 1.1,16.9
2023/09/30 01:20:00, 1.0,16.8
2023/09/30 01:30:00, 0.8,16.9
2023/09/30 01:40:00, 0.8,17.2
2023/09/30 01:50:00, 0.8,17.4
2023/09/30 02:00:00, 0.8,17.5
2023/09/30 02:10:00, 0.8,17.2
2023/09/30 02:20:00, 0.8,17.3
2023/09/30 02:30:00, 0.8,17.1
2023/09/30 02:40:00, 0.8,16.8
2023/09/30 02:50:00, 0.8,16.8
2023/09/30 03:00:00, 0.9,16.7
2023/09/30 03:10:00, 1.0,16.4
2023/09/30 03:20:00, 1.1,16.7
2023/09/30 03:30:00, 1.1,16.8
2023/09/30 03:40:00, 1.0,16.6
2023/09/30 03:50:00, 1.1,16.5
2023/09/30 04:00:00, 1.0,16.5
2023/09/30 04:10:00, 1.1,16.5
2023/09/30 04:20:00, 0.8,16.5
2023/09/30 04:30:00, 0.9,16.8
2023/09/30 04:40:00, 0.8,16.9
2023/09/30 04:50:00, 1.0,17.0
2023/09/30 05:00:00, 1.1,16.7
2023/09/30 05:10:00, 0.9,16.6
2023/09/30 05:20:00, 1.1,16.7
2023/09/30 05:30:00, 1.1,16.4
2023/09/30 05:40:00, 1.2,16.3
2023/09/30 05:50:00, 1.2,16.3
2023/09/30 06:00:00, 1.2,16.2
2023/09/30 06:10:00, 1.5,16.2
2023/09/30 06:20:00, 1.5,16.6
2023/09/30 06:30:00, 1.1,16.9
2023/09/30 06:40:00, 1.2,17.2
2023/09/30 06:50:00, 1.1,17.3
2023/09/30 07:00:00, 1.3,17.3
2023/09/30 07:10:00, 1.3,17.4
2023/09/30 07:20:00, 1.6,17.4
2023/09/30 07:30:00, 1.6,18.1
2023/09/30 07:40:00, 1.1,19.8
2023/09/30 07:50:00, 0.8,20.2
2023/09/30 08:00:00, 0.4,20.4
2023/09/30 08:10:00, 0.3,20.8
2023/09/30 08:20:00, 0.2,21.6
2023/09/30 08:30:00, 0.2,21.3
2023/09/30 08:40:00, 0.0,21.5
2023/09/30 08:50:00, 0.0,23.4
2023/09/30 09:00:00, 0.0,23.6
2023/09/30 09:10:00, 0.0,23.5
2023/09/30 09:20:00, 0.0,23.7
2023/09/30 09:30:00, 0.0,24.7
2023/09/30 09:40:00, 0.0,24.2
2023/09/30 09:50:00, 0.0,24.0
2023/09/30 10:00:00, 0.1,24.7
2023/09/30 10:10:00, 0.0,24.5
2023/09/30 10:20:00, 0.0,24.7
2023/09/30 10:30:00, 0.0,25.1
2023/09/30 10:40:00, 0.0,24.5
2023/09/30 10:50:00, 0.1,24.4
2023/09/30 11:00:00, 0.1,23.8
2023/09/30 11:10:00, 0.0,24.2
2023/09/30 11:20:00, 0.1,24.1
2023/09/30 11:30:00, 0.4,23.3
2023/09/30 11:40:00, 0.2,23.3
2023/09/30 11:50:00, 0.2,23.1
2023/09/30 12:00:00, 0.3,22.5
2023/09/30 12:10:00, 0.1,23.0
2023/09/30 12:20:00, 0.3,23.1
2023/09/30 12:30:00, 0.1,23.9
2023/09/30 12:40:00, 0.1,24.5
2023/09/30 12:50:00, 0.0,25.7
2023/09/30 13:00:00, 0.1,24.2
2023/09/30 13:10:00, 0.0,25.4
2023/09/30 13:20:00, 0.0,25.4
2023/09/30 13:30:00, 0.0,26.0
2023/09/30 13:40:00, 0.0,24.8
2023/09/30 13:50:00, 0.2,24.5
2023/09/30 14:00:00, 0.4,23.8
2023/09/30 14:10:00, 0.4,23.4
2023/09/30 14:20:00, 0.5,22.6
2023/09/30 14:30:00, 0.4,21.7
2023/09/30 14:40:00, 0.4,21.9
2023/09/30 14:50:00, 0.4,20.9
2023/09/30 15:00:00, 0.8,20.8
2023/09/30 15:10:00, 0.9,20.8
2023/09/30 15:20:00, 0.8,20.4
2023/09/30 15:30:00, 0.0,20.0
2023/09/30 15:40:00, 0.0,19.5
2023/09/30 15:50:00, 0.0,19.3
2023/09/30 16:00:00, 0.0,18.6
2023/09/30 16:10:00, 0.0,18.6
2023/09/30 16:20:00, 0.0,18.7
2023/09/30 16:30:00, 0.0,18.1
2023/09/30 16:40:00, 0.0,18.4
2023/09/30 16:50:00, 0.0,18.1
2023/09/30 17:00:00, 0.0,18.0
2023/09/30 17:10:00, 0.0,17.9
2023/09/30 17:20:00, 0.0,17.6
2023/09/30 17:30:00, 0.0,17.5
2023/09/30 17:40:00, 0.0,17.4
2023/09/30 17:50:00, 0.0,17.8
2023/09/30 18:00:00, 0.0,17.0
2023/09/30 18:10:00, 0.0,16.8
2023/09/30 18:20:00, 0.0,16.8
2023/09/30 18:30:00, 0.0,16.7
2023/09/30 18:40:00, 0.0,16.9
2023/09/30 18:50:00, 0.0,16.7
2023/09/30 19:00:00, 0.0,16.8
2023/09/30 19:10:00, 0.0,16.8
2023/09/30 19:20:00, 0.0,16.7
2023/09/30 19:30:00, 0.0,16.7
2023/09/30 19:40:00, 0.0,16.5
2023/09/30 19:50:00, 0.0,16.5
2023/09/30 20:00:00, 0.0,16.7
2023/09/30 20:10:00, 0.0,16.7
2023/09/30 20:20:00, 0.0,16.5
2023/09/30 20:30:00, 0.0,16.5
2023/09/30 20:40:00, 0.0,16.4
2023/09/30 20:50:00, 0.0,16.4
2023/09/30 21:00:00, 0.0,16.7
2023/09/30 21:10:00, 0.0,16.5
2023/09/30 21:20:00, 0.0,16.7
2023/09/30 21:30:00, 0.0,16.7
2023/09/30 21:40:00, 0.0,16.6
2023/09/30 21:50:00, 0.0,16.5
2023/09/30 22:00:00, 0.0,16.6
2023/09/30 22:10:00, 0.0,16.6
2023/09/30 22:20:00, 0.0,16.7
2023/09/30 22:30:00, 0.0,16.6
2023/09/30 22:40:00, 0.0,16.6
2023/09/30 22:50:00, 0.0,16.6
2023/09/30 23:00:00, 0.0,16.7
2023/09/30 23:10:00, 0.0,16.7
2023/09/30 23:20:00, 0.0,16.8
2023/09/30 23:30:00, 0.0,16.7
2023/09/30 23:40:00, 0.0,16.7
2023/09/30 23:50:00, 0.0,16.8
